Time,TemperatureF,DewpointF,PressureIn,WindDirection,WindDirectionDegrees,WindSpeedMPH,WindSpeedGustMPH,Humidity,HourlyPrecipIn,Conditions,Clouds,dailyrainin,SoftwareType,DateUTC
2013-03-16 07:32:00,43.0,41.0,30.03,East,96,0.0,0.0,94,0.00,,,0.00,,2013-03-16 14:32:00,
2013-03-16 07:42:00,43.0,41.0,30.03,East,96,0.0,0.0,94,0.00,,,0.00,,2013-03-16 14:42:00,
2013-03-16 07:52:00,43.0,42.0,30.04,East,96,0.0,0.0,95,0.00,,,0.00,,2013-03-16 14:52:00,
2013-03-16 08:02:00,43.0,42.0,30.04,East,96,0.0,0.0,95,0.00,,,0.00,,2013-03-16 15:02:00,
2013-03-16 08:12:00,43.0,42.0,30.04,East,96,0.0,0.0,95,0.00,,,0.00,,2013-03-16 15:12:00,
2013-03-16 08:22:00,43.0,42.0,30.03,East,96,0.0,0.0,95,0.00,,,0.00,,2013-03-16 15:22:00,
2013-03-16 08:33:00,43.0,42.0,30.04,East,96,0.0,0.0,95,0.00,,,0.00,,2013-03-16 15:33:00,
2013-03-16 08:42:00,43.0,42.0,30.04,East,96,0.0,0.0,95,0.00,,,0.00,,2013-03-16 15:42:00,
2013-03-16 08:52:00,43.0,42.0,30.05,East,96,0.0,0.0,95,0.00,,,0.00,,2013-03-16 15:52:00,
2013-03-16 09:02:00,44.0,43.0,30.05,ESE,110,0.0,0.0,96,0.00,,,0.00,,2013-03-16 16:02:00,
2013-03-16 09:12:00,44.0,43.0,30.05,ESE,110,0.0,0.0,96,0.00,,,0.00,,2013-03-16 16:12:00,
2013-03-16 09:22:00,47.0,45.0,30.04,East,99,0.0,0.0,93,0.00,,,0.00,,2013-03-16 16:22:00,
2013-03-16 09:33:00,50.0,46.0,30.04,East,99,0.0,0.0,85,0.00,,,0.00,,2013-03-16 16:33:00,
2013-03-16 09:42:00,50.0,46.0,30.04,East,99,0.0,0.0,85,0.00,,,0.00,,2013-03-16 16:42:00,
2013-03-16 09:52:00,53.0,44.0,30.05,WNW,292,3.0,4.0,72,0.00,,,0.00,,2013-03-16 16:52:00,
2013-03-16 10:02:00,54.0,44.0,30.05,SSW,199,2.0,5.0,69,0.00,,,0.00,,2013-03-16 17:02:00,
2013-03-16 10:12:00,54.0,44.0,30.05,SSW,199,2.0,5.0,69,0.00,,,0.00,,2013-03-16 17:12:00,
2013-03-16 10:22:00,55.0,44.0,30.05,SSW,213,1.0,4.0,67,0.00,,,0.00,,2013-03-16 17:22:00,
2013-03-16 10:32:00,56.0,44.0,30.06,West,266,2.0,5.0,63,0.00,,,0.00,,2013-03-16 17:32:00,
2013-03-16 10:42:00,56.0,44.0,30.06,West,266,2.0,5.0,63,0.00,,,0.00,,2013-03-16 17:42:00,
2013-03-16 10:52:00,58.0,43.0,30.08,ENE,71,4.0,9.0,58,0.00,,,0.00,,2013-03-16 17:52:00,
2013-03-16 11:02:00,58.0,43.0,30.08,WSW,252,2.0,7.0,57,0.00,,,0.00,,2013-03-16 18:02:00,
2013-03-16 11:13:00,58.0,43.0,30.08,WSW,252,2.0,7.0,57,0.00,,,0.00,,2013-03-16 18:13:00,
2013-03-16 11:22:00,60.0,43.0,30.08,WNW,288,3.0,8.0,53,0.00,,,0.00,,2013-03-16 18:22:00,
2013-03-16 11:32:00,61.0,42.0,30.08,NW,317,2.0,7.0,50,0.00,,,0.00,,2013-03-16 18:32:00,
2013-03-16 11:42:00,61.0,42.0,30.08,NW,317,2.0,7.0,50,0.00,,,0.00,,2013-03-16 18:42:00,
2013-03-16 11:52:00,61.0,42.0,30.08,NW,317,2.0,7.0,50,0.00,,,0.00,,2013-03-16 18:52:00,
2013-03-16 12:01:00,61.0,42.0,30.08,NW,317,2.0,7.0,50,0.00,,,0.00,,2013-03-16 19:01:00,
2013-03-16 13:02:00,68.0,46.0,30.05,West,264,1.0,4.0,45,0.00,,,0.00,,2013-03-16 20:02:00,
2013-03-16 13:12:00,68.0,46.0,30.05,West,264,1.0,4.0,45,0.00,,,0.00,,2013-03-16 20:12:00,
2013-03-16 13:21:00,69.0,46.0,30.04,SW,223,2.0,5.0,43,0.00,,,0.00,,2013-03-16 20:21:00,
2013-03-16 13:32:00,69.0,42.0,30.03,NNW,343,2.0,6.0,38,0.00,,,0.00,,2013-03-16 20:32:00,
2013-03-16 13:42:00,69.0,42.0,30.03,NNW,343,2.0,6.0,38,0.00,,,0.00,,2013-03-16 20:42:00,
2013-03-16 13:51:00,70.0,42.0,30.03,WNW,283,1.0,5.0,36,0.00,,,0.00,,2013-03-16 20:51:00,
2013-03-16 13:52:00,71.0,40.0,30.03,West,266,1.0,8.0,32,0.00,,,0.00,,2013-03-16 20:52:00,
2013-03-16 14:02:00,70.0,42.0,30.03,SSW,192,2.0,5.0,36,0.00,,,0.00,,2013-03-16 21:02:00,
2013-03-16 14:12:00,70.0,42.0,30.03,SSW,192,2.0,5.0,36,0.00,,,0.00,,2013-03-16 21:12:00,
2013-03-16 14:22:00,71.0,40.0,30.03,West,266,1.0,8.0,32,0.00,,,0.00,,2013-03-16 21:22:00,
2013-03-16 14:32:00,71.0,40.0,30.03,West,266,1.0,8.0,32,0.00,,,0.00,,2013-03-16 21:32:00,
2013-03-16 14:43:00,71.0,40.0,30.03,West,266,1.0,8.0,32,0.00,,,0.00,,2013-03-16 21:43:00,
2013-03-16 15:03:00,74.0,39.0,30.01,North,355,2.0,5.0,28,0.00,,,0.00,,2013-03-16 22:03:00,
2013-03-16 15:12:00,74.0,39.0,30.01,North,355,2.0,5.0,28,0.00,,,0.00,,2013-03-16 22:12:00,
2013-03-16 15:22:00,73.0,36.0,30.01,NW,306,4.0,9.0,26,0.00,,,0.00,,2013-03-16 22:22:00,
2013-03-16 15:32:00,73.0,36.0,30.01,NW,319,4.0,10.0,26,0.00,,,0.00,,2013-03-16 22:32:00,
2013-03-16 15:42:00,73.0,36.0,30.01,NW,319,4.0,10.0,26,0.00,,,0.00,,2013-03-16 22:42:00,
2013-03-16 15:52:00,73.0,35.0,30.00,West,274,2.0,9.0,25,0.00,,,0.00,,2013-03-16 22:52:00,
2013-03-16 16:02:00,73.0,35.0,30.00,West,274,2.0,9.0,25,0.00,,,0.00,,2013-03-16 23:02:00,
2013-03-16 16:12:00,73.0,35.0,30.00,West,274,2.0,9.0,25,0.00,,,0.00,,2013-03-16 23:12:00,